User: anonymous   Login
Location: Lincolnton
(35.4660°N, 81.2500°W)
Time: 02:42:09
(UTC-05:00)
Language:

Hubble Space Telescope - Orbit

View from above orbital plane
View from above orbital plane
View from above satellite
View from above satellite

Ground track
Ground track

The orbit data is extracted from the following two-line orbital elements,

1 20580U 90037B   17058.65575233  .00000823  00000-0  40038-4 0  9993
2 20580  28.4709  11.2399 0002943  77.9341 279.6572 15.08684357273727
Epoch (UTC): 27 February 2017 15:44:17
Eccentricity: 0.0002943
inclination: 28.4709°
perigee height: 538 km
apogee height: 542 km
right ascension of ascending node: 11.2399°
argument of perigee: 77.9341°
revolutions per day: 15.08684357
mean anomaly at epoch: 279.6572°
orbit number at epoch: 27372

The dashed part of the orbit path shows where the satellite is in the earth's shadow,  

DLR